Location: Okie-Tex Star Party
(36.8978°N, 102.9520°W)
Time: 08:19:22
(UTC-06:00)

Amateur Radio Satellites - All Passes

Search period start: 29 January 2015 07:49
Search period end: 30 January 2015 07:49
Location: Okie-Tex Star Party, 36.8978°N, 102.9520°W

Satellite Date Start Highest point End Downlink Frequencies (MHz)
Time Altitude Azimuth
YUBILEINY 29 Jan 08:01:20 08:10:08 76° 265° (W) 08:18:54 435.215
BRITE-PL 29 Jan 08:08:15 08:10:13 12° 86° (E) 08:12:33 437.365/2234.400
STRAND 1 29 Jan 08:24:51 08:27:40 14° 270° (W) 08:30:13 437.568
VERMONT LUNAR 29 Jan 08:31:39 08:34:38 28° 149° (SSE) 08:37:41 437.305
CUTE 1.7 + AOD 2 29 Jan 08:34:15 08:34:50 10° 89° (E) 08:35:43 437.475
Cubesat XI-IV 29 Jan 09:00:39 09:02:20 11° 298° (WNW) 09:03:41 437.490
SEEDS 29 Jan 09:02:49 09:05:53 20° 93° (E) 09:09:04 437.485
HO-68 29 Jan 09:13:32 09:20:15 43° 99° (E) 09:27:01 435.675
COMPASS 1 29 Jan 09:28:53 09:32:41 34° 97° (E) 09:36:28 437.405
PHONESAT 2.4 29 Jan 09:29:50 09:33:15 42° 153° (SSE) 09:36:42 2401.200-2431.200
GOMX 1 29 Jan 09:39:26 09:44:51 68° 100° (E) 09:49:58 467.674
CINEMA 3 29 Jan 09:39:37 09:43:31 25° 93° (E) 09:47:23 145.822/145.860
CANX-2 29 Jan 09:42:49 09:47:03 84° 100° (E) 09:51:16 2200.000
BRITE-PL 29 Jan 09:43:48 09:49:30 78° 284° (WNW) 09:54:55 437.365/2234.400
DELFI C3 29 Jan 09:51:09 09:54:02 19° 93° (E) 09:57:02 145.870
DOVE 4 29 Jan 09:51:51 09:57:01 65° 100° (E) 10:01:54 437.250
AAUSAT CUBESAT 2 29 Jan 09:54:58 09:59:05 62° 100° (E) 10:03:11 437.432
UWE-3 29 Jan 09:55:57 09:58:45 17° 91° (E) 10:01:40 435.000/436.395/437.385
POLYITAN 1 29 Jan 09:58:21 10:00:35 14° 67° (ENE) 10:03:00 437.675
RS-15 29 Jan 09:59:38 10:05:16 15° 352° (N) 10:10:49 29.354- 29.394
UNISAT 6 29 Jan 10:00:14 10:04:11 28° 71° (ENE) 10:08:12 437.425
YUBILEINY 29 Jan 10:02:26 10:05:43 12° 282° (WNW) 10:08:13 435.215
CUTE 1.7 + AOD 2 29 Jan 10:07:04 10:11:13 54° 285° (WNW) 10:15:19 437.475
Oscar 11 29 Jan 10:08:27 10:12:30 40° 98° (E) 10:16:35 145.826/435.025
VERMONT LUNAR 29 Jan 10:09:07 10:12:36 71° 344° (NNW) 10:16:06 437.305
POPSAT HIP 1 29 Jan 10:17:12 10:20:30 23° 70° (ENE) 10:23:56 437.405
DUCHIFAT 1 29 Jan 10:19:46 10:23:09 24° 70° (ENE) 10:26:38 145.980
VELOX 1 29 Jan 10:23:29 10:24:54 12° 90° (E) 10:26:36 145.980
SO-50 29 Jan 10:34:50 10:39:08 47° 116° (ESE) 10:43:39 436.795
ANTELSAT 29 Jan 10:35:24 10:40:04 67° 75° (ENE) 10:44:46 437.575/2403.000
SEEDS 29 Jan 10:38:09 10:41:46 28° 288° (WNW) 10:45:19 437.485
50 SAT 29 Jan 10:38:44 10:41:02 15° 91° (E) 10:43:29 437.505
TIGRISAT 29 Jan 10:43:05 10:47:48 79° 75° (ENE) 10:52:31 435.000
UKube-1 29 Jan 10:43:41 10:47:59 56° 101° (E) 10:52:15 .
BEESAT 2 29 Jan 10:45:22 10:46:45 12° 43° (NE) 10:48:17 435.950
CUBEBUG 2 29 Jan 10:51:06 10:55:41 89° 102° (ESE) 11:00:05 437.445
NANOSAT C BR1 29 Jan 10:53:27 10:57:39 60° 75° (ENE) 11:01:53 145.865
BEESAT 3 29 Jan 10:58:25 11:01:06 17° 47° (NE) 11:03:54 437.485
ZACube-1 29 Jan 10:58:33 11:02:59 75° 101° (ESE) 11:07:16 437.345
HUMSAT D 29 Jan 11:01:24 11:05:24 40° 98° (E) 11:09:20 437.325/437.525
HO-68 29 Jan 11:01:33 11:07:51 34° 295° (WNW) 11:14:01 435.675
DX 1 29 Jan 11:04:28 11:08:54 79° 284° (WNW) 11:13:17 434.975-435.025
COMPASS 1 29 Jan 11:05:23 11:08:11 17° 291° (WNW) 11:10:50 437.405
QB50P2 29 Jan 11:07:42 11:11:59 89° 245° (WSW) 11:16:19 145.880/145.840
PHONESAT 2.4 29 Jan 11:08:14 11:11:47 58° 348° (NNW) 11:15:24 2401.200-2431.200
FUNcube-1 29 Jan 11:10:30 11:14:56 80° 283° (WNW) 11:19:13 145.935
CINEMA 3 29 Jan 11:16:33 11:20:45 29° 290° (WNW) 11:24:42 145.822/145.860
QB50P1 29 Jan 11:17:03 11:21:19 70° 259° (W) 11:25:37 145.935-145.965
GOMX 1 29 Jan 11:19:22 11:22:22 15° 296° (WNW) 11:25:03 467.674
DELFI C3 29 Jan 11:25:51 11:29:19 27° 288° (WNW) 11:32:43 145.870
BRITE-PL 29 Jan 11:26:34 11:27:09 10° 299° (WNW) 11:27:20 437.365/2234.400
BUGSAT 1 29 Jan 11:28:41 11:32:44 67° 259° (W) 11:36:52 437.445
AISAT 29 Jan 11:29:12 11:33:43 71° 102° (ESE) 11:38:12 437.250
UWE-3 29 Jan 11:31:22 11:35:32 37° 288° (WNW) 11:39:32 435.000/436.395/437.385
DOVE 4 29 Jan 11:31:25 11:34:13 14° 296° (WNW) 11:36:43 437.250
POLYITAN 1 29 Jan 11:32:03 11:36:12 45° 262° (W) 11:40:21 437.675
ESTCUBE 1 29 Jan 11:32:31 11:36:33 31° 96° (E) 11:40:36 437.505/2401.250
UNISAT 6 29 Jan 11:36:55 11:40:56 27° 265° (W) 11:44:52 437.425
Oscar 11 29 Jan 11:45:45 11:48:25 16° 292° (WNW) 11:50:54 145.826/435.025
VERMONT LUNAR 29 Jan 11:47:36 11:50:58 44° 1° (N) 11:54:21 437.305
AIST 1 29 Jan 11:50:32 11:54:41 56° 94° (E) 11:58:53
POPSAT HIP 1 29 Jan 11:52:39 11:56:19 27° 265° (W) 11:59:57 437.405
SPROUT 29 Jan 11:53:42 11:54:19 10° 89° (E) 11:55:16 437.525
DUCHIFAT 1 29 Jan 11:55:22 11:58:56 25° 265° (W) 12:02:29 145.980
VELOX 1 29 Jan 11:57:31 12:01:56 57° 286° (WNW) 12:06:20 145.980
CUBEBUG 1 29 Jan 12:05:32 12:09:59 71° 101° (ESE) 12:14:25 437.445
GONETS M04 29 Jan 12:08:11 12:15:15 28° 69° (ENE) 12:22:34
50 SAT 29 Jan 12:12:38 12:16:20 34° 287° (WNW) 12:19:58 437.505
RS-15 29 Jan 12:15:49 12:23:44 22° 28° (NNE) 12:32:16 29.354- 29.394
ANTELSAT 29 Jan 12:16:06 12:17:24 11° 272° (W) 12:18:22 437.575/2403.000
SO-50 29 Jan 12:16:33 12:20:00 20° 314° (NW) 12:23:25 436.795
AIST 2 29 Jan 12:17:44 12:21:45 39° 54° (NE) 12:25:44 435.215
BEESAT 2 29 Jan 12:21:23 12:25:34 76° 242° (WSW) 12:29:39 435.950
UKube-1 29 Jan 12:21:50 12:23:44 12° 294° (WNW) 12:25:24 .
TISAT 1 29 Jan 12:27:58 12:31:35 27° 95° (E) 12:35:15 437.305
BEESAT 3 29 Jan 12:35:33 12:39:31 44° 245° (WSW) 12:43:24 437.485
HUMSAT D 29 Jan 12:38:23 12:40:53 15° 292° (WNW) 12:43:11 437.325/437.525
PHONESAT 2.4 29 Jan 12:47:08 12:50:40 47° 5° (N) 12:54:13 2401.200-2431.200
PCSat 29 Jan 12:55:56 12:58:51 15° 45° (NE) 13:01:59 145.827
Oscar 19 29 Jan 12:56:56 13:01:37 35° 70° (ENE) 13:06:20 437.125/150
AISAT 29 Jan 13:08:49 13:09:49 10° 295° (WNW) 13:10:34 437.250
ESTCUBE 1 29 Jan 13:09:46 13:13:17 22° 291° (WNW) 13:16:42 437.505/2401.250
BEESAT 29 Jan 13:12:58 13:14:40 12° 89° (E) 13:16:40 436.000
ITAMSAT 1 29 Jan 13:14:47 13:18:10 18° 66° (ENE) 13:21:44 435.822/435.867
ITUPSAT 1 29 Jan 13:16:35 13:18:41 13° 90° (E) 13:21:04 437.325
VERMONT LUNAR 29 Jan 13:25:47 13:29:18 80° 16° (NNE) 13:32:50 437.305
SPROUT 29 Jan 13:26:36 13:30:53 58° 285° (WNW) 13:35:09 437.525
CUBEBUG 1 29 Jan 13:45:08 13:45:52 10° 295° (WNW) 13:46:18 437.445
AIST 2 29 Jan 13:57:14 14:00:07 17° 249° (WSW) 14:02:49 435.215
TISAT 1 29 Jan 14:03:53 14:07:19 23° 290° (WNW) 14:10:39 437.305
GONETS M04 29 Jan 14:04:11 14:12:38 57° 269° (W) 14:21:03
Gurwin Techsat 1B 29 Jan 14:11:04 14:16:00 43° 72° (ENE) 14:21:02 435.225
HORYU 2 29 Jan 14:17:26 14:19:24 13° 66° (ENE) 14:21:36 437.375
PHONESAT 2.4 29 Jan 14:25:45 14:29:23 75° 203° (SSW) 14:33:02 2401.200-2431.200
AO-7 29 Jan 14:27:10 14:32:44 21° 56° (ENE) 14:38:39 29.400- 29.500
RS-15 29 Jan 14:27:40 14:38:58 66° 55° (NE) 14:50:51 29.354- 29.394
SWISSCUBE 29 Jan 14:32:27 14:37:15 82° 284° (WNW) 14:42:03 437.505
Oscar 19 29 Jan 14:36:46 14:41:03 25° 266° (W) 14:45:13 437.125/150
PCSat 29 Jan 14:37:35 14:43:03 83° 244° (WSW) 14:48:28 145.827
BEESAT 29 Jan 14:48:17 14:53:01 61° 285° (WNW) 14:57:43 436.000
ITAMSAT 1 29 Jan 14:52:18 14:57:19 50° 260° (W) 15:02:22 435.822/435.867
ITUPSAT 1 29 Jan 14:52:19 14:57:02 56° 286° (WNW) 15:01:43 437.325
DANDE 29 Jan 14:58:53 15:03:06 18° 61° (ENE) 15:06:50 436.750
STARS 29 Jan 14:59:26 15:02:44 21° 94° (E) 15:06:08 437.465
VERMONT LUNAR 29 Jan 15:04:20 15:07:13 23° 212° (SSW) 15:10:05 437.305
KKS-1 29 Jan 15:05:38 15:09:50 38° 98° (E) 15:14:01 437.445
M-CUBED/EXP-1 PRIME 29 Jan 15:25:49 15:26:34 11° 97° (E) 15:27:31 437.505
CUSAT 1 29 Jan 15:26:03 15:31:32 35° 70° (ENE) 15:35:46 437.405
HORYU 2 29 Jan 15:51:14 15:55:41 56° 260° (W) 16:00:07 437.375
Gurwin Techsat 1B 29 Jan 15:52:11 15:56:13 21° 267° (W) 16:00:06 435.225
O/OREOS (USA 219) 29 Jan 15:56:04 15:59:20 21° 102° (ESE) 16:02:46 437.305
AUBIESAT-1 29 Jan 15:56:57 15:59:47 26° 102° (ESE) 16:02:45 437.475
PHONESAT 2.4 29 Jan 16:05:16 16:07:37 16° 215° (SW) 16:09:54 2401.200-2431.200
AO-7 29 Jan 16:16:17 16:24:41 85° 254° (WSW) 16:33:07 29.400- 29.500
JAS-2 29 Jan 16:29:55 16:35:17 52° 74° (ENE) 16:40:22 435.910
STARS 29 Jan 16:35:21 16:39:18 31° 289° (WNW) 16:43:10 437.465
RS-15 29 Jan 16:40:58 16:50:52 33° 253° (WSW) 17:00:45 29.354- 29.394
DANDE 29 Jan 16:41:10 16:47:25 52° 268° (W) 16:52:01 436.750
KKS-1 29 Jan 16:43:07 16:46:13 18° 292° (WNW) 16:49:10 437.445
MOZHAYETS 4 29 Jan 16:47:21 16:50:29 19° 92° (E) 16:53:45
M-CUBED/EXP-1 PRIME 29 Jan 16:58:43 17:01:45 32° 291° (WNW) 17:04:51 437.505
Cubesat XI-IV 29 Jan 17:00:34 17:03:05 14° 64° (ENE) 17:05:52 437.490
CUSAT 1 29 Jan 17:09:48 17:14:07 21° 276° (W) 17:17:32 437.405
CUTE-I 29 Jan 17:19:01 17:22:48 21° 66° (ENE) 17:26:46 437.470
AUBIESAT-1 29 Jan 17:32:41 17:34:37 14° 295° (WNW) 17:36:28 437.475
O/OREOS (USA 219) 29 Jan 17:34:33 17:38:35 31° 297° (WNW) 17:42:37 437.305
AO-7 29 Jan 18:14:18 18:18:47 14° 272° (W) 18:22:36 29.400- 29.500
JAS-2 29 Jan 18:17:21 18:20:48 16° 268° (W) 18:23:52 435.910
MOZHAYETS 4 29 Jan 18:23:41 18:27:53 36° 287° (WNW) 18:32:02
PRISM 29 Jan 18:33:37 18:36:59 24° 95° (E) 18:40:26 437.425
Cubesat XI-IV 29 Jan 18:37:21 18:42:39 71° 258° (WSW) 18:48:00 437.490
CUBESAT XI-V 29 Jan 18:40:27 18:44:05 23° 93° (E) 18:47:51 437.345
JUGNU 29 Jan 18:48:00 18:50:59 14° 176° (S) 18:54:00 437.505
STRAND 1 29 Jan 18:56:31 19:00:34 24° 94° (E) 19:04:44 437.568
CUTE-I 29 Jan 18:57:31 19:02:36 46° 261° (W) 19:07:43 437.470
YUBILEINY 29 Jan 19:04:57 19:11:25 25° 84° (E) 19:18:15 435.215
SO-50 29 Jan 19:08:36 19:12:43 26° 49° (NE) 19:16:54 436.795
BRITE-PL 29 Jan 19:17:52 19:19:04 11° 62° (ENE) 19:20:37 437.365/2234.400
SRMSAT 29 Jan 19:29:45 19:32:05 12° 171° (S) 19:34:29 437.500
HO-68 29 Jan 19:40:36 19:46:11 26° 63° (ENE) 19:51:58 435.675
SEEDS 29 Jan 19:54:44 19:56:14 12° 67° (ENE) 19:57:58 437.485
PRISM 29 Jan 20:09:05 20:12:27 24° 290° (WNW) 20:15:46 437.425
CUBESAT XI-V 29 Jan 20:17:25 20:21:36 32° 288° (WNW) 20:25:44 437.345
COMPASS 1 29 Jan 20:19:05 20:21:59 19° 70° (ENE) 20:25:02 437.405
CANX-2 29 Jan 20:33:35 20:37:40 44° 74° (ENE) 20:41:46 2200.000
STRAND 1 29 Jan 20:35:10 20:39:52 36° 290° (WNW) 20:44:32 437.568
JUGNU 29 Jan 20:36:22 20:39:14 14° 186° (S) 20:42:03 437.505
CINEMA 3 29 Jan 20:39:18 20:42:49 20° 68° (ENE) 20:46:33 145.822/145.860
AAUSAT CUBESAT 2 29 Jan 20:44:07 20:47:50 31° 72° (ENE) 20:51:35 437.432
GOMX 1 29 Jan 20:44:41 20:49:35 56° 74° (ENE) 20:54:50 467.674
SO-50 29 Jan 20:48:50 20:53:24 37° 246° (WSW) 20:57:53 436.795
BRITE-PL 29 Jan 20:51:46 20:56:46 88° 258° (WSW) 21:02:13 437.365/2234.400
UWE-3 29 Jan 20:52:08 20:54:02 13° 66° (ENE) 20:56:10 435.000/436.395/437.385
DOVE 4 29 Jan 20:54:37 20:59:26 51° 74° (ENE) 21:04:33 437.250
CUTE 1.7 + AOD 2 29 Jan 20:57:26 21:01:43 78° 77° (ENE) 21:06:01 437.475
YUBILEINY 29 Jan 20:59:06 21:07:40 62° 281° (W) 21:16:17 435.215
Oscar 11 29 Jan 21:01:30 21:05:00 25° 71° (ENE) 21:08:35 145.826/435.025
ISS 29 Jan 21:04:08 21:06:10 16° 130° (SE) 21:08:17 145.825
SRMSAT 29 Jan 21:17:14 21:20:28 15° 181° (S) 21:23:42 437.500
HO-68 29 Jan 21:26:32 21:33:32 56° 259° (W) 21:40:32 435.675
SEEDS 29 Jan 21:27:29 21:31:40 54° 260° (W) 21:35:52 437.485
UKube-1 29 Jan 21:36:42 21:40:37 35° 72° (ENE) 21:44:37 .
CUBEBUG 2 29 Jan 21:46:35 21:51:13 58° 75° (ENE) 21:55:57 437.445
HUMSAT D 29 Jan 21:51:42 21:55:07 23° 70° (ENE) 21:58:37 437.325/437.525
ZACube-1 29 Jan 21:52:02 21:56:24 45° 73° (ENE) 22:00:50 437.345
COMPASS 1 29 Jan 21:53:43 21:57:33 32° 264° (W) 22:01:19 437.405
DX 1 29 Jan 21:57:45 22:02:03 66° 75° (ENE) 22:06:24 434.975-435.025
AIST 1 29 Jan 22:02:10 22:03:39 12° 69° (ENE) 22:05:23
FUNcube-1 29 Jan 22:03:38 22:08:09 60° 75° (ENE) 22:12:42 145.935
DELFI C3 29 Jan 22:11:10 22:15:13 60° 260° (W) 22:19:15 145.870
CANX-2 29 Jan 22:11:35 22:13:53 14° 269° (W) 22:15:59 2200.000
CINEMA 3 29 Jan 22:15:05 22:19:44 42° 263° (W) 22:24:30 145.822/145.860
AAUSAT CUBESAT 2 29 Jan 22:20:34 22:23:35 18° 267° (W) 22:26:28 437.432
AISAT 29 Jan 22:25:04 22:29:19 47° 73° (ENE) 22:33:38 437.250
GOMX 1 29 Jan 22:25:06 22:28:13 16° 272° (W) 22:31:11 467.674
UWE-3 29 Jan 22:25:28 22:30:06 63° 260° (W) 22:34:47 435.000/436.395/437.385
ESTCUBE 1 29 Jan 22:30:40 22:34:07 23° 70° (ENE) 22:37:41 437.505/2401.250
ANTELSAT 29 Jan 22:31:35 22:34:12 16° 91° (E) 22:36:58 437.575/2403.000
DOVE 4 29 Jan 22:34:15 22:37:36 17° 271° (W) 22:40:50 437.250
Oscar 11 29 Jan 22:37:29 22:41:07 25° 265° (W) 22:44:43 145.826/435.025
TIGRISAT 29 Jan 22:38:39 22:41:42 19° 92° (E) 22:44:50 435.000
ISS 29 Jan 22:39:18 22:42:26 43° 324° (NW) 22:45:36 145.825
NANOSAT C BR1 29 Jan 22:43:16 22:44:43 12° 90° (E) 22:46:26 145.865
VELOX 1 29 Jan 22:52:49 22:57:15 85° 255° (WSW) 23:01:44 145.980
QB50P2 29 Jan 22:56:44 22:59:37 18° 93° (E) 23:02:37 145.880/145.840
50 SAT 29 Jan 22:57:10 23:01:18 80° 258° (WSW) 23:05:28 437.505
CUBEBUG 1 29 Jan 22:59:42 23:03:47 43° 73° (ENE) 23:07:57 437.445
QB50P1 29 Jan 23:05:28 23:08:49 22° 94° (E) 23:12:14 145.935-145.965
SRMSAT 29 Jan 23:07:10 23:08:52 11° 191° (S) 23:10:28 437.500
UKube-1 29 Jan 23:13:59 23:16:57 17° 267° (W) 23:19:46 .
BUGSAT 1 29 Jan 23:14:06 23:17:21 21° 94° (E) 23:20:42 437.445
TISAT 1 29 Jan 23:19:23 23:21:55 16° 68° (ENE) 23:24:37 437.305
POLYITAN 1 29 Jan 23:20:15 23:24:10 33° 97° (E) 23:28:05 437.675
CUBEBUG 2 29 Jan 23:26:04 23:28:22 13° 271° (W) 23:30:25 437.445
HUMSAT D 29 Jan 23:27:05 23:30:49 27° 265° (W) 23:34:31 437.325/437.525
ZACube-1 29 Jan 23:30:12 23:33:04 16° 269° (W) 23:35:44 437.345
UNISAT 6 29 Jan 23:30:49 23:35:16 79° 102° (ESE) 23:39:36 437.425
AIST 1 29 Jan 23:37:29 23:41:43 51° 266° (W) 23:45:58
POPSAT HIP 1 29 Jan 23:39:42 23:43:57 57° 100° (E) 23:48:10 437.405
DUCHIFAT 1 29 Jan 23:41:58 23:46:14 60° 101° (E) 23:50:28 145.980
FUNcube-1 29 Jan 23:43:17 23:44:58 11° 271° (W) 23:46:22 145.935
AISAT 30 Jan 00:03:54 00:06:17 14° 269° (W) 00:08:27 437.250
ESTCUBE 1 30 Jan 00:06:57 00:10:53 29° 264° (W) 00:14:47 437.505/2401.250
ANTELSAT 30 Jan 00:07:07 00:11:17 39° 287° (WNW) 00:15:17 437.575/2403.000
TIGRISAT 30 Jan 00:14:36 00:18:37 33° 288° (WNW) 00:22:28 435.000
NANOSAT C BR1 30 Jan 00:16:48 00:20:59 51° 286° (WNW) 00:25:08 145.865
BEESAT 30 Jan 00:18:17 00:19:50 12° 64° (ENE) 00:21:40 436.000
SPROUT 30 Jan 00:18:18 00:22:36 79° 75° (ENE) 00:26:57 437.525
ISS 30 Jan 00:19:22 00:19:40 10° 343° (NNW) 00:19:56 145.825
ITUPSAT 1 30 Jan 00:22:09 00:24:07 13° 65° (ENE) 00:26:20 437.325
QB50P2 30 Jan 00:31:45 00:35:40 34° 288° (WNW) 00:39:30 145.880/145.840
CUBEBUG 1 30 Jan 00:37:58 00:40:27 14° 269° (W) 00:42:44 437.445
QB50P1 30 Jan 00:41:02 00:44:43 27° 289° (WNW) 00:48:19 145.935-145.965
BUGSAT 1 30 Jan 00:49:10 00:52:53 28° 289° (WNW) 00:56:32 437.445
TISAT 1 30 Jan 00:53:29 00:57:28 39° 262° (W) 01:01:28 437.305
POLYITAN 1 30 Jan 00:56:49 00:59:55 19° 291° (WNW) 01:02:50 437.675
GONETS M04 30 Jan 01:06:25 01:13:57 35° 87° (E) 01:21:38
Oscar 19 30 Jan 01:12:14 01:14:50 14° 90° (E) 01:17:44 437.125/150
POPSAT HIP 1 30 Jan 01:17:47 01:19:25 12° 294° (WNW) 01:20:50 437.405
DUCHIFAT 1 30 Jan 01:20:16 01:21:38 11° 294° (WNW) 01:22:45 145.980
SWISSCUBE 30 Jan 01:36:45 01:41:31 87° 74° (ENE) 01:46:19 437.505
BEESAT 30 Jan 01:52:27 01:57:11 69° 258° (WSW) 02:01:57 436.000
STARS 30 Jan 01:55:25 01:57:52 15° 67° (ENE) 02:00:30 437.465
ITUPSAT 1 30 Jan 01:56:51 02:01:34 63° 259° (W) 02:06:18 437.325
KKS-1 30 Jan 02:02:01 02:05:45 27° 70° (ENE) 02:09:36 437.445
O/OREOS (USA 219) 30 Jan 02:07:19 02:11:18 29° 62° (ENE) 02:15:20 437.305
M-CUBED/EXP-1 PRIME 30 Jan 02:12:41 02:14:42 14° 65° (ENE) 02:16:49 437.505
BEESAT 2 30 Jan 02:14:13 02:17:57 35° 114° (ESE) 02:21:47 435.950
AIST 2 30 Jan 02:15:36 02:17:50 14° 110° (ESE) 02:20:17 435.215
BEESAT 3 30 Jan 02:27:12 02:31:12 58° 117° (ESE) 02:35:17 437.485
Gurwin Techsat 1B 30 Jan 02:30:17 02:34:06 20° 92° (E) 02:38:06 435.225
AUBIESAT-1 30 Jan 02:43:45 02:47:12 29° 69° (ENE) 02:50:28 437.475
Oscar 19 30 Jan 02:49:36 02:54:40 58° 287° (WNW) 02:59:41 437.125/150
CUSAT 1 30 Jan 02:53:34 02:53:55 10° 80° (E) 02:55:07 437.405
GONETS M04 30 Jan 03:02:14 03:10:37 46° 285° (WNW) 03:18:53
ITAMSAT 1 30 Jan 03:07:14 03:12:28 70° 102° (ESE) 03:17:41 435.822/435.867
STARS 30 Jan 03:29:43 03:34:01 46° 261° (W) 03:38:19 437.465
ISS 30 Jan 03:33:33 03:35:17 14° 23° (NNE) 03:37:04 145.825
PCSat 30 Jan 03:35:49 03:39:11 18° 106° (ESE) 03:42:48 145.827
KKS-1 30 Jan 03:38:41 03:42:24 24° 265° (W) 03:46:03 437.445
HORYU 2 30 Jan 03:45:19 03:49:18 32° 97° (E) 03:53:17 437.375
M-CUBED/EXP-1 PRIME 30 Jan 03:45:38 03:49:31 39° 256° (WSW) 03:53:06 437.505
O/OREOS (USA 219) 30 Jan 03:46:53 03:50:38 24° 257° (WSW) 03:54:15 437.305
MOZHAYETS 4 30 Jan 03:48:15 03:50:38 15° 67° (ENE) 03:53:13
AIST 2 30 Jan 03:52:00 03:56:07 46° 304° (NW) 04:00:16 435.215
BEESAT 2 30 Jan 03:53:09 03:56:18 20° 311° (NW) 03:59:25 435.950
DANDE 30 Jan 04:04:03 04:11:11 36° 88° (E) 04:18:56 436.750
BEESAT 3 30 Jan 04:07:31 04:09:46 14° 315° (NW) 04:11:53 437.485
Gurwin Techsat 1B 30 Jan 04:09:18 04:14:20 44° 288° (WNW) 04:19:20 435.225
AUBIESAT-1 30 Jan 04:19:18 04:22:09 18° 260° (W) 04:24:45 437.475
AO-7 30 Jan 04:20:59 04:28:31 38° 98° (E) 04:36:08 29.400- 29.500
CUSAT 1 30 Jan 04:27:46 04:35:42 61° 94° (E) 04:44:00 437.405
RS-15 30 Jan 04:48:32 04:58:52 52° 112° (ESE) 05:09:20 29.354- 29.394
ITAMSAT 1 30 Jan 04:48:47 04:51:27 14° 296° (WNW) 04:53:51 435.822/435.867
ISS 30 Jan 05:08:57 05:12:16 82° 40° (NE) 05:15:34 145.825
PCSat 30 Jan 05:16:54 05:22:13 55° 301° (WNW) 05:27:33 145.827
HORYU 2 30 Jan 05:22:28 05:25:47 20° 291° (WNW) 05:29:00 437.375
MOZHAYETS 4 30 Jan 05:23:02 05:27:30 50° 261° (W) 05:31:59
PRISM 30 Jan 05:23:29 05:25:33 14° 67° (ENE) 05:27:49 437.425
JAS-2 30 Jan 05:24:17 05:30:01 60° 101° (E) 05:36:30 435.910
CUBESAT XI-V 30 Jan 05:42:36 05:45:33 18° 68° (ENE) 05:48:40 437.345
DANDE 30 Jan 05:46:31 05:54:27 50° 286° (WNW) 06:02:48 436.750
STRAND 1 30 Jan 06:10:20 06:14:32 28° 69° (ENE) 06:18:53 437.568
CUSAT 1 30 Jan 06:12:08 06:19:16 30° 292° (WNW) 06:26:18 437.405
AO-7 30 Jan 06:13:37 06:21:26 45° 295° (WNW) 06:29:06 29.400- 29.500
PRISM 30 Jan 06:56:52 07:00:47 41° 261° (W) 07:04:41 437.425
Cubesat XI-IV 30 Jan 06:57:00 07:02:18 57° 100° (E) 07:07:35 437.490
RS-15 30 Jan 07:01:11 07:11:30 44° 313° (NW) 07:21:48 29.354- 29.394
JAS-2 30 Jan 07:10:50 07:14:52 19° 293° (WNW) 07:18:57 435.910
YUBILEINY 30 Jan 07:11:53 07:20:33 61° 79° (E) 07:29:15 435.215
CUTE-I 30 Jan 07:16:38 07:22:03 86° 102° (ESE) 07:27:26 437.470
CUBESAT XI-V 30 Jan 07:18:23 07:22:44 41° 263° (W) 07:27:06 437.345
